TimeCST,TemperatureF,Dew PointF,Humidity,Sea Level PressureIn,VisibilityMPH,Wind Direction,Wind SpeedMPH,Gust SpeedMPH,PrecipitationIn,Events,Conditions,WindDirDegrees,DateUTC
12:10 AM,26.6,26.6,100,29.93,3.0,NW,6.9,-,N/A,Snow,Light Snow,310,2011-12-04 06:10:00
12:30 AM,26.6,26.6,100,29.92,3.0,NW,9.2,-,N/A,Snow,Light Snow,320,2011-12-04 06:30:00
12:50 AM,26.6,26.6,100,29.92,5.0,NW,6.9,-,N/A,Snow,Light Snow,310,2011-12-04 06:50:00
1:09 AM,26.6,24.8,93,29.93,5.0,NW,8.1,-,N/A,Snow,Light Snow,320,2011-12-04 07:09:00
1:30 AM,26.6,24.8,93,29.93,5.0,NW,6.9,-,N/A,Snow,Light Snow,310,2011-12-04 07:30:00
1:50 AM,26.6,24.8,93,29.93,7.0,NW,6.9,-,N/A,Snow,Light Snow,310,2011-12-04 07:50:00
2:30 AM,24.8,24.8,100,29.95,7.0,WNW,5.8,-,N/A,,Mostly Cloudy,290,2011-12-04 08:30:00
2:50 AM,26.6,26.6,100,29.96,7.0,WNW,8.1,-,N/A,,Overcast,300,2011-12-04 08:50:00
3:09 AM,26.6,24.8,93,29.97,7.0,WNW,6.9,-,N/A,,Overcast,290,2011-12-04 09:09:00
3:30 AM,26.6,26.6,100,29.96,10.0,NW,8.1,-,N/A,,Overcast,310,2011-12-04 09:30:00
3:50 AM,26.6,24.8,93,29.96,7.0,NW,8.1,-,N/A,,Overcast,310,2011-12-04 09:50:00
4:09 AM,26.6,24.8,93,29.97,10.0,NW,9.2,-,N/A,,Overcast,310,2011-12-04 10:09:00
4:30 AM,26.6,24.8,93,29.97,10.0,NW,9.2,-,N/A,,Overcast,320,2011-12-04 10:30:00
4:50 AM,26.6,23.0,86,29.96,10.0,NW,10.4,-,N/A,,Overcast,320,2011-12-04 10:50:00
5:09 AM,26.6,21.2,80,29.96,10.0,NW,13.8,-,N/A,,Overcast,320,2011-12-04 11:09:00
5:30 AM,24.8,21.2,86,29.98,10.0,NW,11.5,-,N/A,,Overcast,310,2011-12-04 11:30:00
6:09 AM,24.8,21.2,86,29.99,10.0,NW,11.5,-,N/A,,Overcast,320,2011-12-04 12:09:00
6:30 AM,24.8,21.2,86,30.01,10.0,WNW,8.1,-,N/A,,Overcast,300,2011-12-04 12:30:00
6:50 AM,24.8,21.2,86,30.03,10.0,NW,10.4,-,N/A,,Overcast,310,2011-12-04 12:50:00
7:09 AM,24.8,19.4,80,30.04,10.0,NW,10.4,-,N/A,,Overcast,310,2011-12-04 13:09:00
7:30 AM,24.8,19.4,80,30.05,10.0,NW,9.2,-,N/A,,Overcast,320,2011-12-04 13:30:00
7:50 AM,23.0,19.4,86,30.06,10.0,WNW,5.8,-,N/A,,Overcast,300,2011-12-04 13:50:00
8:10 AM,23.0,19.4,86,30.06,10.0,NW,8.1,-,N/A,,Overcast,310,2011-12-04 14:10:00
8:30 AM,23.0,19.4,86,30.07,10.0,NW,8.1,-,N/A,,Overcast,310,2011-12-04 14:30:00
8:50 AM,23.0,19.4,86,30.08,10.0,NW,6.9,-,N/A,,Overcast,310,2011-12-04 14:50:00
9:10 AM,23.0,19.4,86,30.09,10.0,NW,10.4,-,N/A,,Overcast,320,2011-12-04 15:10:00
9:30 AM,23.0,19.4,86,30.10,10.0,WNW,8.1,-,N/A,,Overcast,290,2011-12-04 15:30:00
9:50 AM,23.0,17.6,80,30.11,10.0,WNW,9.2,-,N/A,,Overcast,290,2011-12-04 15:50:00
10:09 AM,23.0,17.6,80,30.11,10.0,WNW,8.1,-,N/A,,Overcast,300,2011-12-04 16:09:00
10:30 AM,23.0,17.6,80,30.12,10.0,NW,8.1,-,N/A,,Overcast,320,2011-12-04 16:30:00
10:50 AM,23.0,17.6,80,30.13,10.0,NW,8.1,-,N/A,,Overcast,310,2011-12-04 16:50:00
11:09 AM,23.0,19.4,86,30.13,10.0,WNW,6.9,-,N/A,,Overcast,300,2011-12-04 17:09:00
11:30 AM,23.0,19.4,86,30.13,10.0,WNW,8.1,-,N/A,,Overcast,300,2011-12-04 17:30:00
11:50 AM,23.0,19.4,86,30.14,10.0,WNW,9.2,-,N/A,,Overcast,290,2011-12-04 17:50:00
12:09 PM,23.0,19.4,86,30.13,10.0,NW,9.2,-,N/A,,Overcast,310,2011-12-04 18:09:00
12:30 PM,23.0,19.4,86,30.13,10.0,WNW,9.2,-,N/A,,Overcast,300,2011-12-04 18:30:00
12:50 PM,23.0,19.4,86,30.13,10.0,WNW,10.4,-,N/A,,Overcast,300,2011-12-04 18:50:00
1:09 PM,23.0,19.4,86,30.14,10.0,WNW,8.1,-,N/A,,Overcast,300,2011-12-04 19:09:00
1:30 PM,23.0,19.4,86,30.14,10.0,WNW,6.9,-,N/A,,Overcast,300,2011-12-04 19:30:00
1:50 PM,23.0,19.4,86,30.14,10.0,WNW,6.9,-,N/A,,Overcast,300,2011-12-04 19:50:00
2:09 PM,23.0,19.4,86,30.14,10.0,WNW,6.9,-,N/A,,Overcast,300,2011-12-04 20:09:00
2:30 PM,23.0,19.4,86,30.15,10.0,WNW,6.9,-,N/A,,Overcast,300,2011-12-04 20:30:00
2:50 PM,23.0,19.4,86,30.15,10.0,WNW,10.4,-,N/A,,Overcast,300,2011-12-04 20:50:00
3:09 PM,23.0,19.4,86,30.16,10.0,NW,10.4,-,N/A,,Overcast,310,2011-12-04 21:09:00
3:30 PM,23.0,19.4,86,30.17,10.0,NW,9.2,-,N/A,,Overcast,310,2011-12-04 21:30:00
3:49 PM,21.2,19.4,93,30.19,10.0,WNW,9.2,-,N/A,,Overcast,300,2011-12-04 21:49:00
4:10 PM,21.2,19.4,93,30.20,10.0,NW,8.1,-,N/A,,Overcast,310,2011-12-04 22:10:00
4:30 PM,21.2,17.6,86,30.21,10.0,NW,8.1,-,N/A,,Overcast,310,2011-12-04 22:30:00
4:49 PM,21.2,17.6,86,30.21,10.0,WNW,9.2,-,N/A,,Overcast,300,2011-12-04 22:49:00
5:10 PM,21.2,17.6,86,30.22,10.0,WNW,8.1,-,N/A,,Overcast,300,2011-12-04 23:10:00
5:30 PM,21.2,17.6,86,30.23,10.0,NW,9.2,-,N/A,,Overcast,310,2011-12-04 23:30:00
5:49 PM,21.2,17.6,86,30.24,10.0,NW,5.8,-,N/A,,Overcast,320,2011-12-04 23:49:00
6:10 PM,21.2,17.6,86,30.25,10.0,WNW,4.6,-,N/A,,Overcast,300,2011-12-05 00:10:00
6:30 PM,21.2,17.6,86,30.27,10.0,WNW,5.8,-,N/A,,Overcast,290,2011-12-05 00:30:00
6:49 PM,21.2,17.6,86,30.27,10.0,WNW,5.8,-,N/A,,Overcast,300,2011-12-05 00:49:00
7:10 PM,21.2,17.6,86,30.28,10.0,NW,4.6,-,N/A,,Overcast,310,2011-12-05 01:10:00
7:30 PM,21.2,17.6,86,30.27,10.0,NW,6.9,-,N/A,,Overcast,320,2011-12-05 01:30:00
7:50 PM,21.2,17.6,86,30.28,10.0,NW,5.8,-,N/A,,Overcast,310,2011-12-05 01:50:00
8:10 PM,21.2,17.6,86,30.29,10.0,WNW,8.1,-,N/A,,Overcast,300,2011-12-05 02:10:00
8:30 PM,21.2,17.6,86,30.30,10.0,WNW,5.8,-,N/A,,Overcast,290,2011-12-05 02:30:00
8:49 PM,21.2,17.6,86,30.30,10.0,WNW,5.8,-,N/A,,Overcast,300,2011-12-05 02:49:00
9:10 PM,19.4,17.6,93,30.31,10.0,West,6.9,-,N/A,,Overcast,280,2011-12-05 03:10:00
9:30 PM,19.4,17.6,93,30.32,10.0,West,10.4,-,N/A,Snow,Light Snow,280,2011-12-05 03:30:00
9:49 PM,19.4,17.6,93,30.32,10.0,WNW,9.2,-,N/A,,Overcast,290,2011-12-05 03:49:00
10:10 PM,19.4,15.8,86,30.33,10.0,WNW,9.2,-,N/A,Snow,Light Snow,290,2011-12-05 04:10:00
10:29 PM,19.4,15.8,86,30.33,10.0,WNW,9.2,-,N/A,Snow,Light Snow,300,2011-12-05 04:29:00
10:50 PM,19.4,15.8,86,30.33,10.0,NW,6.9,-,N/A,,Overcast,310,2011-12-05 04:50:00
11:10 PM,19.4,15.8,86,30.33,10.0,WNW,9.2,-,N/A,,Overcast,300,2011-12-05 05:10:00
11:29 PM,19.4,15.8,86,30.33,10.0,WNW,8.1,-,N/A,,Overcast,300,2011-12-05 05:29:00
11:50 PM,19.4,15.8,86,30.33,10.0,WNW,8.1,-,N/A,,Overcast,300,2011-12-05 05:50:00